Wind_Speed
34 35 36 35 35 35 35 36 37 36 36 36 36 36 35 35 34 34 33 32 32 32 32 32 31 31 30 30 29 28 28 28 27 26 26 25 24 23 23 22 22 22 22
35 36 36 37 37 37 37 38 38 38 38 37 38 37 37 36 36 35 35 34 33 34 34 34 33 33 32 31 31 30 30 30 28 28 27 26 25 25 25 24 24 24 23
37 37 37 38 38 39 39 39 39 39 40 40 39 38 38 38 38 37 37 36 36 36 36 36 35 35 35 34 33 32 32 31 31 29 28 28 27 26 26 25 25 25 25
40 39 39 39 39 39 39 39 40 40 40 41 41 40 40 40 40 39 39 39 39 39 38 37 37 37 37 36 36 34 34 33 33 32 31 30 30 29 28 27 26 26 26
41 41 41 40 41 41 41 41 40 40 40 41 42 42 42 42 41 41 41 41 41 41 40 40 39 39 39 39 38 37 36 36 35 34 33 32 32 31 30 29 29 28 27
42 42 42 41 42 43 44 43 42 41 41 42 42 42 43 43 43 42 42 43 43 43 42 42 42 41 40 41 40 39 39 38 37 37 35 34 34 33 32 32 31 31 30
44 44 44 44 43 44 44 45 44 44 43 44 44 43 43 44 44 44 43 43 44 44 44 44 44 43 42 42 42 42 41 40 39 39 38 37 36 35 35 34 34 33 32
45 46 46 45 45 45 45 45 44 45 45 45 46 45 45 45 46 45 45 45 45 45 45 45 45 44 43 43 43 43 43 43 41 41 40 39 39 38 37 37 36 35 35
47 48 48 47 47 47 47 47 46 46 46 46 47 47 47 46 47 46 47 47 46 46 47 47 47 47 47 46 45 45 46 45 44 43 43 42 41 41 40 39 39 38 37
48 49 49 49 48 48 48 49 49 48 48 49 49 49 49 48 48 47 47 48 48 49 49 49 49 49 49 49 48 48 48 48 47 47 45 45 43 42 42 41 41 40 39
49 49 49 49 49 50 50 50 51 51 51 50 50 50 49 49 49 49 49 49 49 50 52 52 51 51 51 51 51 51 50 50 50 49 48 47 46 45 44 44 43 42 41
50 50 50 50 50 51 51 52 52 52 53 52 52 52 51 51 51 51 50 49 50 51 52 53 52 53 53 53 52 53 53 53 52 52 51 50 49 48 46 46 45 45 44
50 51 51 51 52 52 52 53 53 54 55 54 54 54 53 52 53 53 53 52 51 51 52 53 53 54 54 55 54 55 55 54 54 54 54 53 52 51 50 49 48 47 47
51 52 52 52 53 52 52 53 53 53 54 54 55 55 55 54 54 54 54 54 54 54 54 54 55 55 56 56 56 56 56 56 56 56 56 55 54 53 52 51 50 49 49
51 51 52 53 53 53 53 53 54 54 54 54 55 55 55 55 55 56 56 56 56 56 55 55 56 57 57 58 58 58 58 58 58 58 58 57 56 56 55 54 53 52 52
51 51 52 53 53 53 53 54 54 55 55 55 55 55 55 56 56 57 57 57 58 57 57 56 57 58 59 59 59 59 58 59 59 59 59 59 59 58 57 56 55 54 53
51 50 51 52 53 54 54 54 54 55 55 55 56 56 56 56 56 57 58 58 59 59 59 58 59 60 60 60 60 60 60 59 60 60 60 61 60 60 59 58 58 56 55
51 51 51 52 53 54 54 54 55 55 55 55 56 56 57 58 57 57 58 59 59 60 60 59 59 60 60 61 61 61 61 61 61 61 61 61 62 61 61 60 60 58 57
50 51 51 52 53 54 54 54 55 55 56 55 56 56 57 58 58 58 57 58 59 59 60 60 59 60 61 62 62 62 62 62 63 63 63 63 63 62 62 61 61 60 59
50 51 52 52 53 53 54 55 55 56 56 56 56 57 56 57 57 57 58 58 58 59 60 60 60 60 61 62 63 63 63 63 63 64 64 64 64 63 63 62 61 61 60
49 49 50 51 52 53 54 54 55 56 56 57 57 58 57 57 57 58 58 58 59 59 59 60 60 60 60 61 62 63 63 63 63 63 64 65 65 64 64 63 62 62 61
47 47 48 49 50 50 51 53 54 56 57 57 58 58 58 57 57 57 58 59 59 59 58 59 59 59 59 59 60 61 62 62 62 62 63 63 64 64 64 64 63 62 61
45 45 45 46 47 47 48 50 51 53 54 55 56 57 58 58 57 57 58 58 58 58 58 59 59 58 58 58 58 59 60 61 61 62 63 62 63 64 64 64 64 64 64
44 44 45 45 45 45 46 47 48 49 50 52 53 54 55 55 56 56 57 56 55 55 56 57 57 58 58 57 57 58 58 59 60 61 62 62 63 63 64 64 64 64 64
43 43 44 44 44 45 45 46 46 47 48 49 50 51 52 52 53 54 55 55 54 54 54 55 56 57 57 58 58 58 58 60 60 60 61 62 62 63 63 63 63 63 63
43 43 43 43 44 44 44 44 44 45 46 46 47 48 49 50 51 53 54 54 54 54 54 55 55 56 56 57 57 57 58 59 59 60 60 61 61 62 62 62 63 63 63
Wind_Direction
260 260 259 258 257 257 257 257 257 256 255 255 255 254 255 254 255 254 253 253 252 251 251 250 250 249 249 250 250 250 250 251 252 251 251 251 252 253 255 256 258 259 260
261 260 259 259 258 258 258 258 258 255 255 255 255 254 253 253 253 253 252 253 253 251 250 250 250 250 250 250 249 249 251 251 251 250 251 252 252 253 254 255 257 258 259
260 260 260 260 259 259 259 258 257 256 256 255 254 253 253 253 253 253 253 252 252 251 251 250 249 249 249 249 249 249 250 251 251 251 250 252 253 254 255 255 256 258 259
260 260 260 260 260 259 258 258 257 257 256 255 254 253 253 253 254 254 253 252 252 251 251 251 250 249 249 249 249 249 249 250 251 252 251 252 253 254 255 256 256 257 259
261 261 261 260 259 259 259 258 257 257 256 255 255 254 253 253 254 254 254 252 252 252 251 250 250 249 248 248 248 249 249 249 250 251 252 252 254 255 256 257 256 257 258
262 262 261 261 260 260 260 261 259 257 256 256 256 255 254 253 254 254 254 252 252 251 250 249 249 249 248 248 248 249 249 250 250 252 253 253 254 255 255 256 257 257 258
262 262 262 262 262 261 261 260 259 258 257 256 256 255 254 254 254 253 253 252 252 251 250 249 249 249 249 248 248 248 249 250 250 251 253 253 253 255 256 257 258 257 258
261 261 261 262 262 261 260 259 259 258 257 257 256 255 255 254 254 253 252 252 252 251 250 248 248 248 248 248 248 248 249 250 250 251 251 253 253 255 256 257 258 258 260
261 261 261 262 262 261 260 259 258 258 258 258 257 257 256 255 254 253 252 252 252 251 250 249 248 248 248 248 249 249 249 249 249 250 251 252 253 254 255 256 257 258 259
263 262 262 261 262 261 260 260 259 258 258 258 259 258 257 255 255 254 253 253 253 252 251 251 250 250 249 249 250 250 249 250 250 250 250 251 252 254 255 256 256 256 257
263 263 262 262 261 260 260 260 259 259 259 259 259 258 258 257 257 256 255 254 254 253 252 252 252 252 251 251 250 250 250 250 250 250 251 250 251 253 254 255 255 256 257
262 262 262 262 261 261 260 259 259 259 259 259 259 258 258 258 258 257 256 256 255 254 253 253 252 252 252 252 251 250 250 250 249 249 250 251 251 252 253 254 255 255 256
262 262 262 262 261 261 260 260 260 259 259 259 259 258 258 259 258 258 257 256 254 253 253 253 253 253 252 252 251 250 250 250 250 249 250 251 251 251 252 252 254 254 255
262 262 262 262 262 261 261 260 260 260 259 258 258 258 259 259 259 259 258 257 255 254 253 253 253 253 253 253 252 251 251 250 250 250 250 250 251 251 250 251 253 254 254
262 262 262 262 261 261 261 261 261 261 260 259 258 259 259 260 260 260 259 257 256 255 254 253 253 253 253 253 253 252 251 250 250 250 250 250 250 250 251 251 252 252 252
263 262 262 262 262 263 262 262 262 261 260 260 259 260 260 260 260 260 259 258 257 257 255 253 254 254 254 254 253 252 252 251 250 250 250 250 250 250 251 250 251 252 253
265 264 264 263 263 263 263 262 262 261 260 260 260 260 261 260 261 261 260 259 258 258 256 254 254 254 254 254 253 253 252 252 250 250 250 250 250 250 251 251 251 252 253
266 266 266 265 264 264 264 264 263 261 261 260 260 260 261 261 262 261 260 259 259 258 257 256 254 254 254 254 253 253 252 252 251 250 250 250 250 250 251 251 251 252 252
267 266 267 266 266 265 264 264 263 262 261 261 260 260 261 261 262 261 260 260 259 258 258 257 255 255 254 254 254 253 252 252 251 250 249 249 250 250 251 250 251 251 252
269 268 267 267 266 265 264 264 264 263 262 261 261 261 261 261 262 262 260 260 259 259 258 257 257 255 255 255 254 253 252 251 250 249 248 248 249 249 250 250 250 251 251
271 270 269 268 267 267 266 265 264 263 262 262 261 261 261 262 262 262 261 260 260 259 258 257 256 256 255 255 254 253 252 251 250 250 249 248 248 249 249 249 249 250 250
271 271 271 270 269 269 267 266 264 263 263 263 262 261 261 261 262 262 261 260 259 259 258 257 256 255 255 255 254 253 251 251 250 250 249 248 248 248 248 249 248 249 249
272 272 271 271 270 270 269 268 266 264 263 262 262 262 261 261 261 261 261 260 259 258 258 257 256 255 255 255 254 253 252 251 251 250 249 249 249 248 248 248 249 249 249
273 273 272 272 271 271 270 269 268 266 264 263 263 262 261 261 261 261 260 259 259 258 258 257 256 255 255 255 255 254 253 252 251 251 250 249 249 248 248 248 248 249 250
274 273 273 272 272 272 271 271 269 267 266 265 263 262 262 261 261 261 260 259 259 258 257 257 256 255 255 255 255 255 253 252 252 251 250 250 249 248 248 248 248 249 250
275 274 274 274 274 273 273 272 270 269 268 266 265 264 262 262 261 262 262 260 259 258 257 257 256 256 255 255 255 254 254 253 252 251 250 250 249 249 248 248 249 250 250
Height
5760 5761 5762 5763 5765 5766 5768 5769 5771 5773 5774 5776 5778 5780 5782 5784 5786 5788 5790 5792 5794 5796 5798 5800 5802 5804 5806 5808 5810 5812 5814 5816 5818 5820 5821 5823 5824 5826 5827 5829 5830 5831 5832
5751 5752 5753 5754 5756 5757 5758 5760 5762 5763 5765 5767 5769 5771 5773 5775 5777 5779 5781 5784 5786 5788 5790 5793 5795 5797 5799 5801 5803 5805 5808 5810 5812 5814 5815 5817 5819 5820 5822 5823 5824 5825 5826
5742 5743 5744 5745 5746 5747 5749 5751 5752 5754 5756 5758 5760 5761 5763 5765 5767 5770 5772 5775 5777 5779 5782 5784 5786 5789 5791 5793 5796 5798 5800 5803 5805 5807 5809 5811 5813 5814 5816 5817 5819 5820 5821
5732 5733 5734 5735 5736 5737 5739 5740 5742 5744 5746 5748 5750 5752 5754 5756 5758 5760 5762 5765 5768 5770 5772 5775 5777 5780 5782 5785 5787 5790 5792 5795 5797 5799 5802 5804 5806 5808 5810 5811 5813 5814 5815
5722 5723 5724 5725 5726 5727 5728 5730 5732 5734 5736 5738 5740 5742 5743 5745 5747 5750 5752 5755 5757 5760 5762 5765 5768 5770 5773 5776 5778 5781 5784 5787 5789 5792 5794 5796 5799 5801 5803 5804 5806 5808 5809
5711 5712 5713 5715 5716 5716 5718 5719 5721 5723 5725 5727 5729 5731 5732 5734 5736 5739 5741 5744 5746 5749 5752 5754 5757 5760 5763 5766 5769 5772 5775 5778 5781 5783 5786 5788 5791 5793 5795 5797 5799 5801 5802
5700 5701 5703 5704 5705 5706 5707 5708 5709 5711 5713 5715 5717 5719 5721 5723 5725 5727 5730 5732 5734 5737 5740 5743 5746 5750 5753 5756 5759 5762 5765 5768 5771 5774 5777 5780 5782 5785 5787 5789 5791 5793 5795
5689 5690 5691 5692 5693 5694 5695 5697 5698 5699 5701 5703 5705 5707 5709 5712 5714 5716 5718 5721 5723 5725 5728 5731 5735 5738 5741 5745 5748 5751 5754 5758 5761 5764 5767 5770 5773 5776 5778 5780 5782 5785 5787
5677 5678 5679 5680 5681 5682 5683 5684 5686 5687 5689 5691 5692 5694 5697 5699 5702 5704 5706 5709 5711 5713 5716 5719 5723 5726 5729 5733 5736 5740 5743 5747 5750 5753 5757 5760 5763 5766 5768 5771 5773 5776 5778
5663 5665 5666 5667 5668 5669 5671 5672 5673 5675 5676 5678 5679 5681 5684 5686 5689 5692 5694 5696 5698 5701 5704 5707 5710 5714 5717 5720 5724 5727 5731 5735 5738 5742 5745 5749 5752 5755 5758 5761 5763 5766 5769
5650 5651 5653 5654 5655 5656 5658 5659 5660 5662 5663 5665 5666 5668 5670 5672 5675 5678 5681 5683 5686 5688 5691 5694 5697 5701 5704 5707 5711 5714 5718 5722 5726 5730 5734 5737 5741 5744 5747 5750 5753 5756 5759
5637 5638 5639 5641 5642 5643 5644 5645 5646 5648 5650 5651 5653 5655 5657 5659 5662 5664 5667 5670 5672 5675 5677 5680 5683 5687 5690 5693 5697 5701 5705 5709 5713 5717 5721 5725 5729 5732 5735 5738 5742 5745 5748
5624 5625 5626 5627 5628 5629 5630 5631 5632 5634 5635 5637 5639 5641 5643 5645 5648 5650 5653 5655 5658 5661 5663 5666 5669 5672 5676 5679 5682 5686 5691 5695 5699 5703 5708 5712 5716 5720 5723 5727 5730 5733 5736
5611 5611 5612 5613 5613 5614 5615 5616 5618 5619 5621 5622 5624 5626 5628 5631 5633 5635 5638 5640 5643 5647 5649 5652 5655 5658 5661 5664 5668 5672 5676 5680 5685 5689 5694 5698 5702 5706 5710 5714 5717 5721 5724
5597 5597 5598 5598 5599 5599 5600 5601 5603 5604 5606 5608 5610 5612 5614 5616 5618 5620 5622 5625 5628 5631 5635 5638 5640 5643 5645 5649 5653 5657 5661 5665 5670 5675 5679 5684 5688 5692 5696 5701 5704 5708 5711
5582 5583 5584 5584 5585 5585 5586 5587 5588 5589 5591 5593 5595 5597 5598 5600 5602 5604 5606 5608 5611 5615 5619 5623 5624 5627 5630 5633 5637 5641 5645 5649 5654 5659 5664 5668 5673 5677 5682 5686 5690 5694 5697
5568 5568 5569 5569 5570 5570 5571 5572 5572 5574 5576 5577 5579 5581 5583 5584 5586 5588 5590 5592 5595 5598 5602 5606 5608 5611 5614 5617 5621 5625 5629 5633 5638 5643 5648 5653 5657 5662 5666 5671 5675 5679 5683
5554 5554 5554 5554 5555 5555 5556 5556 5557 5558 5560 5562 5564 5565 5567 5568 5570 5571 5573 5575 5578 5580 5584 5588 5592 5594 5597 5600 5604 5608 5612 5617 5622 5626 5631 5636 5641 5646 5651 5655 5660 5664 5668
5540 5540 5540 5540 5540 5540 5541 5541 5542 5543 5545 5546 5548 5549 5551 5552 5554 5555 5556 5558 5561 5563 5566 5570 5574 5577 5580 5583 5587 5591 5595 5600 5605 5609 5614 5619 5624 5630 5635 5639 5644 5648 5653
5525 5525 5525 5525 5524 5524 5525 5525 5526 5528 5529 5530 5532 5533 5535 5536 5537 5538 5540 5541 5543 5546 5548 5552 5556 5559 5562 5565 5568 5573 5578 5582 5587 5592 5597 5602 5608 5613 5618 5623 5628 5632 5637
5511 5510 5510 5509 5509 5509 5509 5509 5510 5512 5513 5515 5516 5517 5518 5519 5520 5521 5523 5525 5526 5529 5531 5534 5538 5542 5545 5547 5551 5555 5560 5564 5570 5574 5579 5585 5591 5597 5601 5605 5610 5615 5620
5497 5496 5495 5495 5494 5494 5494 5494 5494 5496 5497 5498 5500 5501 5502 5503 5503 5504 5506 5507 5509 5511 5514 5517 5521 5524 5527 5530 5533 5537 5542 5547 5554 5559 5562 5568 5573 5578 5583 5589 5593 5598 5604
5484 5483 5482 5481 5480 5480 5479 5479 5479 5480 5481 5482 5483 5484 5485 5486 5486 5487 5489 5490 5492 5494 5497 5500 5504 5507 5511 5514 5517 5521 5525 5530 5536 5541 5545 5552 5556 5562 5566 5571 5576 5581 5587
5471 5470 5469 5468 5467 5466 5465 5465 5464 5465 5466 5466 5467 5468 5469 5469 5470 5471 5472 5474 5476 5478 5481 5484 5488 5492 5494 5496 5500 5504 5507 5513 5519 5523 5528 5534 5539 5544 5549 5554 5559 5564 5569
5458 5457 5456 5455 5454 5453 5452 5451 5450 5451 5451 5452 5452 5453 5453 5454 5455 5455 5456 5459 5461 5463 5464 5467 5471 5474 5477 5480 5483 5487 5491 5496 5502 5507 5511 5517 5522 5527 5532 5538 5542 5547 5552
5445 5444 5443 5442 5441 5440 5439 5438 5437 5437 5438 5438 5438 5438 5439 5439 5439 5439 5440 5442 5445 5447 5449 5451 5454 5457 5460 5464 5467 5471 5475 5479 5485 5491 5496 5500 5505 5509 5515 5522 5526 5530 5535